Regional Weather Roundup
Issued by NWS

Home | Current Version | Previous Version | Graphics & Text | Print | Product List | Glossary On
Versions: 1 2 3 4 5 6 7 8 9 10 11 12 13 14 15 16 17 18 19 20 21 22 23 24 25 26 27 28 29 30 31 32 33 34 35 36 37 38 39 40 41 42 43 44 45 46 47 48 49 50
000
ASUS43 KDTX 161110
RWRMI
MICHIGAN HOURLY REGIONAL WEATHER ROUNDUP
NATIONAL WEATHER SERVICE DETROIT/PONTIAC MI
700 AM EDT MON OCT 16 2017

NOTE: "FAIR" INDICATES FEW OR NO CLOUDS BELOW 12,000 FEET WITH NO
SIGNIFICANT WEATHER AND/OR OBSTRUCTION TO VISIBILITY.

MIZ047>049-052>055-059>063-066>070-074>076-081>083-161200-
SOUTHEAST LOWER MICHIGAN

CITY           SKY/WX    TMP DP  RH WIND       PRES   REMARKS
ADRIAN         CLOUDY    44  42  93 N5        30.26R
ALMA           CLOUDY    42  40  93 W7        30.27R
ANN ARBOR      CLOUDY    44  41  89 NW5       30.24R
BAD AXE        CLOUDY    40  34  77 NW3       30.23S
CARO           CLOUDY    42  35  76 CALM      30.24R
DETROIT CITY   CLOUDY    43  38  82 NW5       30.24R
DETROIT        MOCLDY    44  41  89 NW6       30.25R
GROSSE ILE     MOCLDY    43  40  91 NW6       30.24R
HILLSDALE      CLOUDY    43  41  93 CALM      30.24R
HOWELL         MOCLDY    40  39  95 W3        30.25R

CITY           SKY/WX    TMP DP  RH WIND       PRES   REMARKS
JACKSON        CLOUDY    45  41  86 NW3       30.25R
LAMBERTVILLE   MOCLDY    45  41  87 CALM      30.25R
LANSING        PTCLDY    42  37  82 CALM      30.26S
LAPEER         CLOUDY    39  38  97 NW5       30.24R
MASON          CLOUDY    44  40  86 CALM      30.26R
MONROE         PTCLDY    42  39  90 CALM      30.24R
MT. CLEMENS    PTCLDY    41  38  87 W7        30.22R
PONTIAC        MOCLDY    41  41 100 W6        30.23R
PORT HOPE        N/A     45  32  60 MISG      30.20R
PORT HURON     CLEAR     39  34  81 W3        30.22S
TRI CITIES     CLOUDY    42  37  82 NW3       30.26R
MIDLAND        MOCLDY    38  38 100 CALM      30.25S
TROY           CLOUDY    44  38  81 NW3       30.26R
SAGINAW HB     CLOUDY    41  36  81 W5        30.25R
$$
MIZ043>046-050>051-056>058-064>065-071>073-077>080-161200-
SOUTHWEST LOWER MICHIGAN

CITY           SKY/WX    TMP DP  RH WIND       PRES   REMARKS
BATTLE CREEK   CLOUDY    45  43  93 S3        30.26R
BENTON HARBOR  CLOUDY    52  38  58 W6        30.26R
BIG RAPIDS     CLOUDY    40  38  90 SW3       30.24S
COLDWATER      PTCLDY    43  43 100 CALM      30.25S
FREMONT        CLOUDY    41  41 100 CALM      30.25R
HOLLAND        HVY RAIN  46  44  93 E6        30.26R FOG
GRAND RAPIDS   CLOUDY    45  43  93 E6        30.26R
IONIA          FAIR      39  38  96 CALM      30.26R
KALAMAZOO      CLOUDY    46  43  87 MISG      30.26R
LUDINGTON      CLOUDY    40  39  95 CALM      30.24R
MARSHALL       CLOUDY    44  43  97 CALM      30.26R
MOUNT PLEASANT MOCLDY    44  40  86 CALM      30.25R
MUSKEGON       CLOUDY    45  43  93 E5        30.26R
SOUTH HAVEN    CLOUDY    47  45  94 CALM      30.25R
$$
MIZ016>042-161200-
NORTHERN LOWER MICHIGAN

CITY           SKY/WX    TMP DP  RH WIND       PRES   REMARKS
ALPENA         CLEAR     34  33  96 W5        30.24R WCI  30
BEAVER ISLAND  PTCLDY    31  31 100 CALM      30.21R FOG
BELLAIRE       PTCLDY    31  30  96 CALM      30.25R
CADILLAC       CLOUDY    37  33  87 CALM      30.22R
CHARLEVOIX     PTCLDY    37  33  87 S7        30.25R WCI  31
FRANKFORT      DRIZZLE   44  42  93 CALM      30.23R
GAYLORD        PTCLDY    30  28  92 CALM      30.22R
GRAYLING       CLOUDY    29  28  93 NW3       30.24R
HARBOR SPRINGS PTCLDY    32  31  96 CALM      30.23R
HOUGHTON LAKE  CLOUDY    34  33  96 CALM      30.24R
MANISTEE       CLOUDY    41  40  96 CALM      30.24R
OSCODA         MOCLDY    34  32  94 W5        30.23R WCI  30
PELLSTON       PTCLDY    29  28  96 CALM      30.23R
ROGERS CITY    CLEAR     33  31  92 W5        30.24R WCI  29
TRAVERSE CITY  MOCLDY    37  34  89 CALM      30.23R
$$
MIZ007>008-015-161200-
EASTERN UPPER MICHIGAN

CITY           SKY/WX    TMP DP  RH WIND       PRES   REMARKS
KINROSS        CLOUDY    29  27  92 S7        30.20S WCI  22
MACKINAC ISLAN PTCLDY    41  32  70 S6        30.21S
NEWBERRY       CLEAR     30  29  96 SW6       30.18S WCI  24
S. S. MARIE    PTCLDY    33  27  78 CALM      30.20R
MUNISING         N/A     36  34  92 SW8       30.16S WCI  30
$$
MIZ004>006-011>014-085-161200-
CENTRAL UPPER MICHIGAN

CITY           SKY/WX    TMP DP  RH WIND       PRES   REMARKS
MANISTIQUE     PTCLDY    28  24  82 CALM      30.19R
MENOMINEE      CLEAR     37  35  92 CALM      30.22R
SAWYER-GWINN   MOCLDY    32  30  93 S3        30.16S
$$
MIZ001>003-009>011-084-161200-
WESTERN UPPER MICHIGAN

CITY           SKY/WX    TMP DP  RH WIND       PRES   REMARKS
IRON MOUNTAIN  CLEAR     29  25  85 CALM      30.18R
HOUGHTON       CLEAR     38  34  85 SW3       30.11S
COPPER HARBOR    N/A     39  35  86 W5        30.11R
IRONWOOD       CLEAR     35  33  92 SW7       30.17R WCI  29
$$

ABBREVIATIONS USED IN REMARKS
   TC - TEMPERATURE IN CELSIUS
  WCI - WIND CHILL INDEX
   HX - HEAT INDEX
  VSB - VISIBILITY





USA.gov is the U.S. government's official web portal to all federal, state and local government web resources and services.